{"data":{"norad_id":53320,"intl_designator":"2022-088E","name":"YAOGAN-35 03C","alt_names":[],"object_type":"PAYLOAD","status":"ACTIVE","operator":null,"country":"PRC","launch_date":"2022-07-29","launch_site_code":"XICLF","launch_vehicle":null,"mission":null,"orbit_class":"UNKNOWN","rcs_meters":null,"size_class":null,"mass_kg":null,"dimensions":null,"purposes":[],"wikipedia_slug":null,"has_3d_model":false,"image_url":null,"decayed_at":null,"tle_current":{"epoch":"2026-05-24T20:11:49.229664Z","epoch_age_seconds":85408,"freshness":"FRESH","line1":"1 53320U 22088E   26144.84154201  .00036620  00000+0  79072-3 0  9999","line2":"2 53320  34.9962 303.7248 0001650  63.9765 296.1126 15.43508276213322","mean_motion":15.43508276,"eccentricity":0.000165,"inclination_deg":34.9962,"raan_deg":303.7248,"arg_perigee_deg":63.9765,"mean_anomaly_deg":296.1126,"bstar":0.00079072,"rev_number":21332,"period_min":93.293960414113,"perigee_km":434.64044377906,"apogee_km":436.88903135246,"semimajor_km":6813.9017375658,"source":"CELESTRAK","updated_at":"2026-05-25T13:37:58.152089Z"}}}